BREEZE-KM R/B

Satellite information

Favourite Embed

Satellite Type and Status

ROCKET BODYIN ORBIT

Key statistics

Satellite BREEZE-KM R/B at a glance.

Uptime

2766

Days in orbit

Revolutions

≈ 15.1

Per day

Orbit

SSO

Sun Synchronous Orbit

Inclination

98.7

Latest

Satellite identification and parameters

Extended collection of information and parameters for BREEZE-KM R/B.

Object identification

Identified? True

Debris? False

Object name: BREEZE-KM R/B

International designator: 2017-064B

Object number (NORAD): 42970

Object ID (CCSDS): 42970

Country: COMMONWEALTH OF INDEPENDENT STATES (CIS)

Current information (Y/N): Y

RCS size: LARGE

Orbital parameters

Period: 95.123 minutes

Inclination: 98.724 deg

SMA: 6902.681 km

Apoapsis: 658.772 km

Periapsis: 390.319 km

RAAN: 84.7031 deg

Eccentricy: 0.0194456

Argument of periapsis: 298.1112 deg

Mean anomaly: 60.0581 deg

Mean motion: 15.13826448 rev/day

Mean motion (dot): 0.00009211 rev/day2

B* drag term: 0.00032092 1/REarth

Two-line elements (TLE)

Creation date: May 10, 2025, 2:32 a.m.

Reference frame: TEME

Reference center: EARTH

Epoch: May 9, 2025, 7:51 p.m. UTC

TLE line 0: 0 BREEZE-KM R/B

TLE line 1: 1 42970U 17064B 25129.82723139 .00009211 00000-0 32092-3 0 9996

TLE line 2: 2 42970 98.7240 84.7031 0194456 298.1112 60.0581 15.13826448413729

Live tracking on map

Real-time ground track for satellite BREEZE-KM R/B.

In-orbit conjunctions

A list of the most updated potential collisions computed for object BREEZE-KM R/B.

Target Orbit TCA Probability of collision Miss distance Type
SL-14 R/B LEO 2024-12-22 02:01:37 0.0002095052 857.0 (m) ROCKET BODY
ZHUQUE-2 R/B SSO 2024-06-29 00:36:42 0.001796108 32.0 (m) ROCKET BODY

Associated space launch

Sentinel-5P, also known as Sentinel-5 Precursor, is an Earth observation satellite developed by European space agency as a part of Copernicus Programme. Being the first mission of the program dedicated to monitoring air pollution, Sentinel-5P is tasked to perform atmospheric measurements relating to air quality, climate forcing, ozone and UV radiation.

BREEZE-KM R/B was lifted into orbit during the mission ‘Rokot / Briz-KM | Sentinel-5P’, on board a Rokot/Briz-KM space rocket.

The launch took place on Oct. 13, 2017, 9:27 a.m. from 133/3 (133L).

For more information about the launch, click the button.

Launch to space Rokot / Briz-KM | Sentinel-5P
Rokot / Briz-KM | Sentinel-5P

Agency: N/A

Status: Launch Successful

Launch date: Oct. 13, 2017, 9:27 a.m. UTC

Rocket: Rokot/Briz-KM

Launch pad: 133/3 (133L)

Location: Plesetsk Cosmodrome, Russian Federation

...

Latest news about this satellite

There are no fresh news available about this satellite. Check back as we update our databases every day.


Newsletter sign-up

Weekly statistics, charts and insights to help you stay on top of the space industry.